Cloud_Cover
100 99 100 100 100 100 100 100 100 100 100 100 100 95 73 8 54 90 23 86 82 99 100 100 82 100 100 100 100 79 96 100 100 100 100 100 100 11 5 30 81 93 87
100 100 100 100 100 100 100 100 100 73 60 94 5 6 34 37 99 84 98 100 100 100 100 100 100 100 100 100 100 100 100 100 100 100 100 100 100 68 92 87 97 62 89
100 100 100 100 94 53 100 75 6 5 60 66 34 99 98 50 94 94 100 92 100 97 93 100 100 100 100 100 100 74 98 100 100 100 100 100 100 100 99 96 21 100 100
99 100 100 97 83 6 5 5 5 5 5 15 34 72 97 100 61 100 74 91 90 86 100 100 100 100 100 90 100 100 100 100 100 100 86 100 100 100 100 100 100 100 99
100 99 91 74 10 5 5 26 33 28 88 47 74 27 21 6 5 11 5 37 45 75 100 100 99 94 85 100 96 100 77 100 100 100 89 57 100 100 98 100 100 100 100
100 63 12 5 7 1 5 7 96 69 11 5 5 5 5 16 6 10 28 50 19 47 100 100 100 100 100 100 100 100 93 97 100 100 98 62 92 100 100 100 100 100 100
68 31 10 5 5 5 5 5 5 5 5 5 5 5 5 8 24 5 6 22 91 99 100 99 100 100 100 98 97 86 66 96 100 100 100 72 53 99 100 100 100 100 100
57 52 5 5 5 5 5 5 5 5 5 6 5 0 0 0 1 5 5 4 4 5 6 80 10 100 100 70 100 100 99 100 100 100 91 100 87 46 100 100 95 100 100
13 5 5 5 5 5 5 5 5 9 1 0 0 0 0 0 0 0 0 0 0 3 5 5 43 75 57 70 92 89 100 100 100 88 10 60 93 9 96 100 100 100 100
56 18 8 5 19 5 5 5 0 0 0 0 0 0 0 0 0 0 0 0 0 5 5 5 23 98 42 5 75 100 100 99 78 100 87 100 98 39 30 71 56 100 100
100 22 13 11 45 13 5 1 0 0 0 0 0 0 1 100 96 98 0 5 4 16 19 45 98 99 100 100 100 98 97 100 90 99 100 47 5 62 7 92 82 44 100
100 58 21 38 29 22 10 0 1 0 61 35 92 1 99 8 0 0 0 2 1 1 34 99 78 76 87 100 100 69 25 100 43 100 100 25 69 72 97 100 91 76 100
100 27 22 30 6 38 88 0 0 1 0 0 0 4 0 18 21 35 98 5 68 48 99 7 98 98 48 29 100 22 71 95 76 72 94 45 90 87 100 89 60 75 100
50 52 5 5 2 29 27 11 3 5 0 4 0 0 0 22 11 13 90 27 0 9 96 0 77 21 82 94 100 100 100 100 66 97 64 15 14 51 88 84 95 74 90
9 8 0 0 0 0 3 27 17 8 0 4 0 0 0 0 4 98 41 2 14 6 6 8 4 3 11 53 21 51 60 52 99 99 91 94 100 64 16 60 26 14 78
4 2 0 0 0 0 4 18 4 1 0 0 0 3 0 6 95 3 37 63 13 0 0 0 0 10 2 0 0 0 0 3 73 96 99 100 100 100 99 100 45 53 82
5 8 0 0 0 0 0 0 0 0 0 0 2 0 0 6 7 0 100 5 5 0 4 29 19 19 8 4 0 0 0 0 0 0 0 1 47 36 100 72 31 76 91
22 0 0 2 0 0 0 0 0 0 0 0 1 61 0 45 97 6 91 76 0 0 1 28 20 5 8 1 0 0 0 0 0 0 0 0 0 8 40 100 51 39 86
0 2 1 4 3 6 0 0 0 0 0 6 29 100 90 0 3 4 43 38 7 8 27 62 64 20 10 5 0 5 3 0 0 0 0 0 0 0 1 24 78 78 18
0 0 3 1 15 15 8 7 0 0 0 6 42 22 30 5 5 5 27 31 51 85 72 16 50 44 12 3 5 5 5 32 7 3 2 0 0 0 0 26 14 0 22
0 0 0 4 0 2 0 0 0 0 5 10 14 1 3 8 5 5 28 6 7 7 2 5 5 32 5 4 5 10 84 100 100 100 86 1 0 0 0 0 0 14 3
0 0 0 0 0 0 0 0 0 0 0 0 5 5 5 4 3 3 3 5 5 2 2 59 86 12 49 96 80 100 100 100 100 19 4 0 5 0 0 2 1 0 0
0 0 0 0 0 0 0 0 0 0 0 0 5 27 9 18 9 42 25 3 3 5 48 4 5 93 78 92 100 100 100 100 100 1 0 0 0 0 0 0 0 4 0
0 0 0 0 0 0 0 0 0 0 0 0 0 0 62 47 99 100 83 65 68 93 5 63 96 69 100 100 100 100 100 100 100 0 0 0 0 0 0 5 6 5 2
0 0 0 0 0 0 0 0 0 0 0 0 0 0 0 2 100 95 67 67 100 100 100 100 100 100 100 100 100 100 91 0 0 0 0 2 0 0 2 7 77 14 5
0 0 0 0 0 0 0 0 0 0 0 0 0 0 0 0 3 54 100 100 100 100 100 100 100 100 100 100 100 48 0 0 3 5 2 0 0 16 5 5 5 5 5